Location: Innsbruck
(47.2657°N, 11.3914°E)
Time: 11:55:50
(UTC+01:00)

XW-2F - Pass Details

Date: 08 December 2021
Orbit: 495 x 515 km, 97.5° (Epoch: 16 January)

Event Time Altitude Azimuth Distance (km) Brightness Sun altitude
Rises 17:34:37 0° 168° (SSE) 2,605 ? -11.4°
Reaches altitude 10° 17:36:41 10° 170° (S) 1,728 ? -11.7°
Maximum altitude 17:40:25 80° 258° (WSW) 528 ? -12.3°
Drops below altitude 10° 17:44:12 10° 345° (NNW) 1,754 ? -12.9°
Sets 17:46:19 0° 347° (NNW) 2,648 ? -13.3°
